AirNav   Phillips 66 Aviation Fuel
 
 1872 users online  

2GE2 Georgia Baptist Urgent Care Heliport
Fayetteville, Georgia, USA


FAA INFORMATION EFFECTIVE 01 FEBRUARY 2018

Location

FAA Identifier: 2GE2
Lat/Long: 32-26-56.5200N / 084-28-47.7100W
32-26.942000N / 084-28.795167W
32.4490333 / -84.4799194
(estimated)
Elevation: 860 ft. / 262 m (estimated)
Variation: 03W (1995)
Time zone: UTC -5 (UTC -4 during Daylight Saving Time)
Zip code: 31058

Heliport Operations

Heliport use: Private use. Permission required prior to landing
Activation date: 07/1999
Control tower: no
ARTCC: ATLANTA CENTER
FSS: MACON FLIGHT SERVICE STATION
Attendance: CONTINUOUS
Wind indicator: yes
Segmented circle: no
Lights: FOR PERIMETER LGTS CALL 770-653-3646.

Heliport Communications

WX AWOS-3 at 6A1 (14 nm NE): 119.525 (478-862-2966)

Nearby radio navigation aids

VOR radial/distance  VOR name  Freq  Var
LSFr077/26.9LAWSON VOR/DME111.4002W
CSGr109/29.0COLUMBUS VORTAC117.1001E

 
NDB name  Hdg/Dist  Freq  Var  ID
MONTEZUMA286/24.442604WIZS .. --.. ...
LINDBERGH315/25.024204WLKG .-.. -.- --.
LAWSON073/29.133502WAWS .- .-- ...
PINE MOUNTAIN143/30.927203WPIM .--. .. --

Heliport Services

Fuel available: A

Runway Information

Helipad H1

Dimensions: 40 x 40 ft. / 12 x 12 m
Surface: concrete, in good condition
Runway edge lights: PERI
Traffic pattern: leftleft

Heliport Ownership and Management from official FAA records

Ownership: Privately-owned
Owner: BAPTIST CONVENTION EXEC COMMITTEE
300 BOULEVARD, NE, P.O. BOX 288
ATLANTA, GA 30312
Phone 770-653-4455
Manager: RALPH MC DANIEL
300 BOULEVARD, NE, P.O. BOX 288
ATLANTA, GA 30312
Phone 770-653-3646

Heliport Operational Statistics

Aircraft based on the field: 1
Helicopters: 1
    

Instrument Procedures

There are no published instrument procedures at 2GE2.

Some nearby airports with instrument procedures:

6A1 - Butler Municipal Airport (14 nm NE)
KCSG - Columbus Airport (24 nm W)
KACJ - Jimmy Carter Regional Airport (25 nm SE)
53A - Dr. C P Savage Sr. Airport (26 nm E)
KLSF - Lawson Army Airfield (Fort Benning) (27 nm W)
 
Loc | Ops | Rwys | IFR | FBO | Links
Com | Nav | Svcs | Stats | Notes

AirNav Hotels Sweepstakes
 
Area around 2GE2 (Georgia Baptist Urgent Care Heliport)
 
Road maps at: MapQuest Bing Google
 
Aerial photo
No photo
 
Sectional chart

 
Airport distance calculator
Flying to Georgia Baptist Urgent Care Heliport? Find the distance to fly.

From to 2GE2

Sunrise and sunset
Times for 20-Feb-2018
 Local
(UTC-5)
 Zulu
(UTC)
Morning civil twilight06:5211:52
Sunrise07:1712:17
Sunset18:2723:27
Evening civil twilight18:5223:52

Current date and time
Zulu (UTC)  20-Feb-2018 16:34:06
Local (UTC-5)  20-Feb-2018 11:34:06
 
METAR
K6A1 
14nm NE 
201615Z AUTO 17011KT 10SM 23/17 A3039 RMK AO2 T02260171
KCSG 
24nm W 
201551Z 15009KT 10SM OVC011 21/18 A3036 RMK AO2 SLP276 T02110178
KACJ 
25nm SE 
201615Z AUTO 17008KT 10SM OVC015 22/16 A3039 RMK AO2
TAF
KCSG 
24nm W 
201123Z 2012/2112 10005KT P6SM BKN005 TEMPO 2012/2013 SCT005 FM201500 13006KT P6SM BKN008 FM201900 16007KT P6SM BKN015 OVC035 FM202100 16007KT P6SM VCSH SCT035 BKN050 FM210200 14006KT P6SM BKN050 FM210700 14005KT P6SM BKN008 FM211000 14004KT 4SM BR BKN006
KLSF 
28nm W 
201239Z 2012/2115 VRB06KT 4800 BR SCT020 QNH3027INS BECMG 2015/2016 13006KT 9999 NSW BKN020 QNH3021INS BECMG 2105/2106 14006KT 9999 BKN010 QNH3030INS BECMG 2108/2109 18006KT 6000 BR BKN005 QNH3031INS TX23/2020Z TN09/2012Z
NOTAMs
Click for the latest NOTAMs
NOTAMs are issued by the DoD/FAA and will open in a separate window not controlled by AirNav.

 

 
 

Would you like to see your business listed on this page?

 If your business provides an interesting product or service to pilots, flight crews, aircraft, or users of the Georgia Baptist Urgent Care Heliport, you should consider listing it here.  To start the listing process, click on the button below
 
Add a business
 

Other Pages about Georgia Baptist Urgent Care Heliport

Update a link
 
Copyright © AirNav, LLC. All rights reserved. Privacy Policy  Contact